User: anonymous   Login
Location: Caltech
(34.1382°N, 118.1253°W)
Time: 11:35:31
(UTC-07:00)
Language:

Cosmos 1833 Rocket - Orbit

View from above orbital plane
View from above orbital plane
View from above satellite
View from above satellite

Ground track
Ground track

The orbit data is extracted from the following two-line orbital elements,

1 17590U 87027B   17202.86904907 -.00000231 +00000-0 -91441-4 0  9992
2 17590 071.0033 076.9463 0007259 257.0083 103.0230 14.16745184568808
Epoch (UTC): 21 July 2017 20:51:25
Eccentricity: 0.0007259
inclination: 71.0033°
perigee height: 831 km
apogee height: 841 km
right ascension of ascending node: 76.9463°
argument of perigee: 257.0083°
revolutions per day: 14.16745184
mean anomaly at epoch: 103.0230°
orbit number at epoch: 56880

The dashed part of the orbit path shows where the satellite is in the earth's shadow,  

DLR